Location: *
(51.0333°S, 178.4667°E)
Time: 08:55:52
(UTC+00:00)

CZ-4 R/B - Pass Details

Date: 27 February 2020
Orbit: 531 x 599 km, 97.8° (Epoch: 07 April)

Event Time Altitude Azimuth Distance (km) Brightness Sun altitude
Rises 07:36:56 0° 167° (SSE) 2,837 5.1 -5.3°
Reaches altitude 10° 07:39:05 10° 167° (SSE) 1,939 4.2 -5.6°
Maximum altitude 07:43:19 84° 253° (WSW) 610 1.6 -6.2°
Drops below altitude 10° 07:47:34 10° 342° (NNW) 1,945 4.1 -6.9°
Sets 07:49:44 0° 342° (NNW) 2,845 4.9 -7.2°
